[[{"header":{"parameterUnit":"m.s-1","parameterCategory":1,"la1":30.2991,"la2":30.254,"lo1":-89.0895,"lo2":-89.0444,"dy":0.0017,"dx":0.0017,"nx":28,"ny":28,"refTime":"2023-10-03T03:00:00:Z","depth":0,"parameterNumber":2,"parameterNumberName":"U-component_of_WINDS"},"data":[0,0,0,0,0,0,0,0,0,0,0,0,0,0,0,0,0,0,0,0,0,0,0,0,0,0,0,0,0,0,0,0,0,0,0,0,0,0,0,0,0,0,0,0,0,0,0,0,0,0,0,0,0,0,0,0,0,0,-3.5665,-3.5666,0,-3.5699,-3.5699,-3.5699,-3.5637,-3.5635,-3.5633,-3.5631,-3.5661,-3.5664,-3.5667,0,0,0,0,0,0,0,0,0,0,0,0,0,-3.5544,-3.5546,-3.5665,-3.5666,-3.5666,-3.5699,-3.5699,-3.5699,-3.5638,-3.5635,-3.5633,-3.563,-3.566,-3.5664,-3.5667,0,0,0,0,0,0,0,0,0,0,0,0,0,-3.5589,-3.5547,-3.5665,-3.5639,-3.5637,-3.5698,-3.5699,-3.5699,-3.5638,-3.5635,-3.5632,-3.5629,-3.5659,-3.5663,-3.5667,-3.5754,0,0,-3.568,-3.5682,0,0,0,0,0,0,0,0,-3.5586,-3.5593,-3.5643,-3.5641,-3.5639,-3.5661,-3.5667,-3.5718,-3.5639,-3.5638,-3.5631,-3.5627,-3.5663,-3.5667,-3.568,-3.5756,-3.5757,-3.568,-3.5683,-3.5684,-3.5686,0,0,0,0,0,0,0,-3.5583,-3.5591,-3.5678,-3.5643,-3.5641,-3.5624,-3.5627,-3.5676,-3.5667,-3.5637,-3.5633,-3.5638,-3.5662,-3.5676,-3.568,-3.5757,-3.568,-3.5684,-3.5686,-3.5688,-3.5904,-3.5907,0,0,0,0,0,0,-3.5584,-3.5589,-3.5677,-3.5679,-3.5605,-3.5629,-3.5633,-3.5657,-3.5667,-3.5665,-3.5641,-3.5635,-3.5671,-3.5675,-3.5681,-3.5781,-3.5684,-3.5688,-3.569,-3.59,-3.5904,-3.5908,0,0,0,0,0,0,-3.5581,-3.5592,-3.5676,-3.5633,-3.5642,-3.5635,-3.5662,-3.5659,-3.5673,-3.5669,-3.5667,-3.5657,-3.5668,-3.5675,-3.5736,-3.5781,-3.569,-3.5694,-3.5897,-3.5902,-3.5906,-3.5983,0,0,0,0,0,0,-3.5578,-3.5592,-3.5626,-3.5634,-3.5645,-3.5732,-3.5665,-3.5662,-3.5681,-3.5674,-3.5684,-3.5682,-3.5666,-3.573,-3.574,-3.5785,-3.5697,-3.5892,-3.5899,-3.5905,-3.5976,-3.599,-3.6002,0,0,0,0,0,-3.5574,-3.5645,-3.5628,-3.5639,-3.5687,-3.5735,-3.5741,-3.5722,-3.5685,-3.5718,-3.5715,-3.5682,-3.5776,-3.5737,-3.5748,-3.5794,-3.5889,-3.5897,-3.5904,-3.5971,-3.5987,-3.6001,0,0,0,0,0,0,-3.5641,-3.5646,-3.5626,-3.5703,-3.5719,-3.5724,-3.5765,-3.574,-3.5766,-3.5758,-3.5733,-3.5735,-3.5801,-3.5804,-3.5761,-3.5878,-3.5826,-3.5836,-3.5873,-3.5889,-3.5901,-3.5897,-3.57,0,0,0,0,0,-3.5665,-3.5704,-3.5706,-3.5774,-3.5783,-3.5773,-3.5793,-3.5777,-3.5792,-3.5798,-3.58,-3.5814,-3.5847,-3.5868,-3.5898,-3.5978,-3.5977,-3.6015,-3.6028,-3.6038,-3.6046,-3.6086,-3.6102,-3.5932,-3.5932,-3.5932,0,0,-3.5714,-3.5722,-3.5748,-3.5787,-3.5798,-3.5837,-3.5779,-3.5824,-3.5852,-3.5804,-3.5861,-3.5864,-3.5878,-3.5949,-3.598,-3.5953,-3.6093,-3.6048,-3.6056,-3.6058,-3.6095,-3.6111,-3.6125,-3.5937,-3.5936,-3.5936,0,0,-3.5822,-3.5834,-3.589,-3.5902,-3.5919,-3.5912,-3.5926,-3.5936,-3.5935,-3.5993,-3.5958,-3.5991,-3.6048,-3.6059,-3.6072,-3.6186,-3.6156,-3.6197,-3.6261,-3.6301,-3.6314,-3.6326,-3.6364,-3.6378,-3.6206,-3.6206,-3.6206,0,-3.588,-3.594,-3.5922,-3.5969,-3.5986,-3.5947,-3.6002,-3.6015,-3.604,-3.6052,-3.6024,-3.6093,-3.6101,-3.6172,-3.62,-3.6213,-3.6226,-3.6194,-3.6314,-3.6326,-3.6336,-3.6372,-3.6386,-3.621,-3.621,-3.6209,-3.6209,0,-3.6009,-3.6051,-3.6094,-3.6121,-3.6144,-3.6195,-3.6183,-3.6208,-3.6191,-3.6186,-3.6245,-3.6253,-3.6282,-3.6299,-3.6282,-3.6367,-3.635,-3.6319,-3.6265,-3.6357,-3.639,-3.6404,-3.6217,-3.6215,-3.6214,-3.6213,0,0,-3.6158,-3.6175,-3.6191,-3.6202,-3.6218,-3.6249,-3.6299,-3.6329,-3.6349,-3.6369,-3.6408,-3.6458,-3.6428,-3.6443,-3.6428,-3.6463,-3.6549,-3.6426,-3.6426,-3.6446,-3.6641,-3.6662,-3.6678,-3.6531,-3.6534,-3.6536,-3.6638,0,-3.6264,-3.6349,-3.6334,-3.6416,-3.6453,-3.6417,-3.6459,-3.6473,-3.6471,-3.6501,-3.6498,-3.6533,-3.6493,-3.6501,-3.6535,-3.6532,-3.6587,-3.6525,-3.6564,-3.6566,-3.6558,-3.6696,-3.6719,-3.6815,-3.6651,-3.6654,-3.6655,0,-3.6398,-3.6423,-3.6509,-3.6519,-3.6534,-3.6572,-3.6598,-3.6628,-3.6643,-3.6639,-3.6656,-3.6634,-3.6681,-3.6631,-3.6693,-3.6651,-3.6667,-3.6668,-3.6671,-3.6671,-3.6613,-3.6696,-3.6846,-3.6859,-3.6676,-3.6674,-3.6673,0,-3.6494,-3.655,-3.6608,-3.6619,-3.6633,-3.666,-3.6667,-3.6679,-3.6698,-3.672,-3.6732,-3.676,-3.6774,-3.6796,-3.6781,-3.6746,-3.6846,-3.6794,-3.6841,-3.6842,-3.6861,-3.6859,-3.7011,-3.6877,-3.6877,-3.6877,-3.6877,0,-3.6612,-3.6665,-3.6651,-3.6686,-3.6744,-3.6727,-3.6784,-3.6787,-3.6798,-3.6831,-3.6803,-3.6835,-3.6816,-3.6846,-3.6836,-3.6888,-3.6896,-3.6892,-3.6887,-3.6892,-3.6892,-3.6899,-3.6891,-3.6881,-3.688,-3.6879,-3.6879,0,-3.6727,-3.6721,-3.6781,-3.679,-3.6793,-3.6835,-3.6841,-3.6874,-3.687,-3.6913,-3.6922,-3.6916,-3.695,-3.6939,-3.6976,-3.6969,-3.7034,-3.7023,-3.7029,-3.7025,-3.7072,-3.7067,-3.7231,-3.725,-3.7107,-3.7109,-3.711,0,-3.6801,-3.6841,-3.6854,-3.6876,-3.6885,-3.6919,-3.6939,-3.6923,-3.6944,-3.6964,-3.6993,-3.7026,-3.705,-3.7106,-3.7104,-3.7131,-3.7119,-3.7174,-3.7122,-3.7125,-3.7115,-3.7112,-3.7115,-3.7184,-3.7185,-3.7187,-3.7188,0,-3.6932,-3.6926,-3.6956,-3.6985,-3.7009,-3.703,-3.7049,-3.7068,-3.7053,-3.7078,-3.7113,-3.7132,-3.717,-3.7201,-3.7226,-3.7232,-3.7207,-3.7205,-3.7216,-3.722,-3.7221,-3.7218,-3.7054,-3.72,-3.7199,-3.7198,-3.7197,-3.7197,-3.7026,-3.706,-3.7074,-3.7107,-3.712,-3.7138,-3.7168,-3.7169,-3.7199,-3.7228,-3.7218,-3.7257,-3.727,-3.7301,-3.731,-3.734,-3.7318,-3.7336,-3.734,-3.7344,-3.7348,-3.7219,-3.7345,-3.7345,-3.7344,-3.7344,-3.7344,0,-3.7153,-3.716,-3.7192,-3.7219,-3.7245,-3.7222,-3.7241,-3.7264,-3.73,-3.7314,-3.7339,-3.7379,-3.7409,-3.741,-3.7438,-3.7462,-3.7451,-3.7469,-3.7465,-3.7466,-3.7368,-3.7353,-3.7477,-3.7477,-3.7477,-3.7477,-3.7477,-3.7477,-3.7221,-3.7275,-3.7272,-3.7332,-3.7339,-3.7378,-3.7391,-3.7407,-3.7418,-3.7464,-3.7489,-3.7491,-3.7499,-3.7528,-3.7554,-3.7553,-3.7563,-3.7585,-3.758,-3.7487,-3.7474,-3.7461,-3.7447,-3.7589,-3.7589,-3.7676,-3.7677,-3.7677]},{"header":{"parameterUnit":"m.s-1","parameterCategory":1,"la1":30.2991,"la2":30.254,"lo1":-89.0895,"lo2":-89.0444,"dy":0.0017,"dx":0.0017,"nx":28,"ny":28,"refTime":"2023-10-03T03:00:00:Z","depth":0,"parameterNumber":3,"parameterNumberName":"V-component_of_WINDS"},"data":[0,0,0,0,0,0,0,0,0,0,0,0,0,0,0,0,0,0,0,0,0,0,0,0,0,0,0,0,0,0,0,0,0,0,0,0,0,0,0,0,0,0,0,0,0,0,0,0,0,0,0,0,0,0,0,0,0,0,2.3635,2.3636,0,2.3695,2.3696,2.3696,2.3688,2.3687,2.3686,2.3685,2.3742,2.3744,2.3747,0,0,0,0,0,0,0,0,0,0,0,0,0,2.3511,2.3513,2.3635,2.3636,2.3637,2.3695,2.3696,2.3696,2.3688,2.3687,2.3686,2.3685,2.3741,2.3744,2.3747,0,0,0,0,0,0,0,0,0,0,0,0,0,2.3567,2.3514,2.3635,2.364,2.3641,2.3695,2.3696,2.3697,2.3688,2.3687,2.3686,2.3684,2.374,2.3744,2.3747,2.3799,0,0,2.3759,2.376,0,0,0,0,0,0,0,0,2.3564,2.3572,2.3638,2.364,2.3641,2.3683,2.3673,2.3731,2.3689,2.367,2.3685,2.3683,2.3723,2.3728,2.3742,2.3802,2.3804,2.3759,2.3761,2.3763,2.3764,0,0,0,0,0,0,0,2.356,2.3569,2.3659,2.3639,2.3641,2.3638,2.3644,2.3684,2.3704,2.3672,2.3671,2.3679,2.3724,2.3739,2.3744,2.3805,2.3759,2.3762,2.3764,2.3766,2.391,2.3912,0,0,0,0,0,0,2.3555,2.3566,2.3657,2.366,2.3598,2.3641,2.3648,2.3671,2.3704,2.3707,2.368,2.3678,2.3733,2.3739,2.3746,2.3808,2.3763,2.3766,2.3768,2.3909,2.3911,2.3913,0,0,0,0,0,0,2.3553,2.3564,2.3654,2.3613,2.3625,2.3645,2.367,2.3673,2.3688,2.371,2.3713,2.3692,2.3733,2.3741,2.3786,2.381,2.3768,2.3771,2.3907,2.3909,2.3912,2.3934,0,0,0,0,0,0,2.3549,2.3563,2.3583,2.3614,2.3627,2.3695,2.3672,2.3675,2.3695,2.3693,2.3722,2.3726,2.3732,2.3781,2.379,2.3815,2.3774,2.3905,2.3908,2.3911,2.3932,2.3937,2.3942,0,0,0,0,0,2.3545,2.3586,2.3584,2.3595,2.3653,2.3696,2.3704,2.3712,2.3697,2.3717,2.3731,2.3725,2.3807,2.3786,2.3796,2.3822,2.3903,2.3907,2.3911,2.3929,2.3936,2.3942,0,0,0,0,0,0,2.3556,2.359,2.3589,2.3641,2.3666,2.3695,2.3721,2.3719,2.3747,2.3744,2.3752,2.3758,2.3805,2.3818,2.3794,2.3874,2.3853,2.3859,2.3863,2.387,2.3875,2.3871,2.3777,0,0,0,0,0,2.3565,2.3599,2.3626,2.367,2.3683,2.37,2.3719,2.3723,2.3749,2.3759,2.3776,2.38,2.3832,2.3852,2.3882,2.3934,2.394,2.3957,2.3962,2.3967,2.3971,2.4,2.4007,2.3925,2.3925,2.3925,0,0,2.3584,2.3606,2.3627,2.3673,2.3693,2.3727,2.3709,2.3745,2.377,2.3764,2.3808,2.3822,2.385,2.3899,2.3922,2.3911,2.3996,2.3971,2.3975,2.3977,2.4004,2.4012,2.4019,2.3927,2.3927,2.3927,0,0,2.3634,2.3655,2.3694,2.3715,2.3746,2.3757,2.3766,2.3796,2.3805,2.3851,2.3847,2.3876,2.393,2.395,2.3967,2.4026,2.4021,2.4036,2.4063,2.4091,2.4097,2.4103,2.4124,2.4131,2.4041,2.4041,2.4041,0,2.3652,2.3704,2.3714,2.3751,2.3771,2.377,2.3809,2.3828,2.3866,2.388,2.3869,2.3937,2.3955,2.4009,2.4024,2.4038,2.4048,2.4032,2.4096,2.4102,2.4107,2.4127,2.4135,2.4042,2.4042,2.4042,2.4042,0,2.3725,2.3761,2.3788,2.3827,2.3851,2.3889,2.3903,2.3926,2.3928,2.3941,2.3987,2.4009,2.4043,2.4057,2.4059,2.4111,2.4104,2.4095,2.4073,2.4117,2.4135,2.4143,2.4044,2.4044,2.4043,2.4043,0,0,2.3782,2.3828,2.3838,2.3855,2.389,2.3918,2.3955,2.3991,2.401,2.4037,2.4068,2.4114,2.4106,2.4125,2.413,2.4154,2.42,2.4142,2.4142,2.4151,2.4258,2.4265,2.4273,2.4197,2.4199,2.42,2.4256,0,2.3835,2.3903,2.3914,2.3973,2.4006,2.4006,2.4039,2.4063,2.4076,2.4105,2.4119,2.4151,2.4138,2.415,2.4174,2.4189,2.4221,2.4185,2.4225,2.4226,2.4217,2.4283,2.429,2.4341,2.4263,2.4264,2.4265,0,2.3906,2.3937,2.4,2.4031,2.4045,2.4075,2.4108,2.4136,2.4164,2.4171,2.4194,2.4196,2.4234,2.4213,2.4265,2.424,2.4258,2.4267,2.4269,2.4272,2.4247,2.4287,2.4358,2.4365,2.4277,2.4276,2.4275,0,2.3941,2.3998,2.4043,2.4059,2.4096,2.4117,2.4133,2.4159,2.418,2.4209,2.4223,2.4255,2.4273,2.4298,2.4308,2.4292,2.436,2.4339,2.4366,2.4366,2.438,2.4378,2.4454,2.4393,2.4392,2.4392,2.4392,0,2.3999,2.4037,2.406,2.4087,2.413,2.4142,2.4184,2.4199,2.4223,2.4253,2.4255,2.4282,2.4295,2.4325,2.4333,2.4375,2.4383,2.439,2.4391,2.4389,2.4388,2.4399,2.4395,2.4394,2.4394,2.4393,2.4393,0,2.4044,2.4061,2.411,2.4142,2.4151,2.4182,2.4208,2.4235,2.4248,2.4286,2.4296,2.4316,2.4351,2.4365,2.4407,2.4413,2.4461,2.446,2.4452,2.4452,2.4478,2.4475,2.4562,2.4574,2.4506,2.4507,2.4507,0,2.4079,2.4109,2.4145,2.4166,2.4184,2.4217,2.4239,2.4252,2.4274,2.4309,2.4331,2.4366,2.4395,2.4451,2.4469,2.4501,2.4501,2.4529,2.4505,2.4502,2.45,2.4498,2.4501,2.4533,2.4534,2.4534,2.4535,0,2.414,2.4147,2.4179,2.4214,2.4241,2.4269,2.4296,2.4313,2.4329,2.4354,2.4391,2.4414,2.4458,2.4493,2.4527,2.4543,2.4541,2.4542,2.455,2.4548,2.4541,2.4544,2.4463,2.454,2.4539,2.4539,2.4539,2.4538,2.4181,2.4207,2.4237,2.4273,2.4295,2.4321,2.4347,2.4365,2.4396,2.4434,2.444,2.4479,2.4506,2.4552,2.4569,2.4599,2.4591,2.4603,2.4606,2.4608,2.461,2.4538,2.4605,2.4605,2.4605,2.4605,2.4605,0,2.4241,2.426,2.4293,2.4332,2.436,2.4359,2.4389,2.4412,2.4447,2.4473,2.4502,2.4544,2.4579,2.46,2.4634,2.4654,2.4654,2.4663,2.4661,2.4664,2.4615,2.4604,2.4662,2.4662,2.4662,2.4662,2.4662,2.4662,2.4275,2.432,2.4331,2.4387,2.4406,2.4446,2.4463,2.4486,2.4507,2.4555,2.4584,2.4598,2.4622,2.4659,2.469,2.4695,2.4707,2.4716,2.472,2.4674,2.4668,2.4662,2.4652,2.4719,2.4719,2.4767,2.4768,2.4768]}]]